Powrót do katalogu

STARLINK-35243

AktywnyŁącznośćVLEO
NORAD 66016·PAYLOAD·🇺🇸 United States

Wystrzelony Oct 16, 2025 z Cape Canaveral Space Force Station

Loading…

Następne Przeloty (najbliższe 24 godziny)

TLE

ŚwieżeSource: CelesTrak SupGP

Epoka: Sep 15, 2026, 04:14 UTC

1 66016C 25232M   26258.17687500  .00004505  00000+0  13308-3 0  2589
2 66016  53.1578 300.8585 0001203  93.9829  56.2597 15.34392093    19

Śledź STARLINK-35243 w czasie rzeczywistym z AllMySat

Download on the App Store